�������l�o���
Date,Time,MP-1(��Sv/h),MP-2(��Sv/h),MP-3(��Sv/h),MP-4(��Sv/h),MP-5(��Sv/h),MP-6(��Sv/h),MP-7(��Sv/h),MP-8(��Sv/h),����,����(m/s),���J
2016/11/26,00:00,1.086,1.827,1.220,2.057,1.422,0.568,1.038,0.962,�k�k��,8.7,��
2016/11/26,00:10,1.086,1.831,1.220,2.052,1.425,0.567,1.040,0.962,�k�k��,9.5,��
2016/11/26,00:20,1.083,1.831,1.220,2.056,1.423,0.568,1.042,0.962,�k�k��,9.3,��
2016/11/26,00:30,1.085,1.826,1.219,2.055,1.424,0.568,1.037,0.960,�k�k��,8.9,��
2016/11/26,00:40,1.086,1.831,1.221,2.054,1.425,0.568,1.038,0.961,�k�k��,9.0,��
2016/11/26,00:50,1.083,1.825,1.220,2.056,1.422,0.569,1.039,0.961,�k�k��,10.0,��
2016/11/26,01:00,1.086,1.828,1.221,2.053,1.422,0.568,1.040,0.963,�k��,10.3,��
2016/11/26,01:10,1.085,1.827,1.221,2.057,1.420,0.569,1.038,0.962,�k��,7.7,��
2016/11/26,01:20,1.085,1.829,1.221,2.055,1.424,0.569,1.038,0.961,�k��,6.3,��
2016/11/26,01:30,1.085,1.830,1.221,2.057,1.423,0.568,1.038,0.963,�k��,6.0,��
2016/11/26,01:40,1.086,1.828,1.221,2.055,1.422,0.570,1.040,0.959,�k��,6.8,��
2016/11/26,01:50,1.084,1.833,1.222,2.054,1.423,0.570,1.038,0.960,�k�k��,4.7,��
2016/11/26,02:00,1.084,1.829,1.220,2.056,1.425,0.568,1.038,0.961,�k�k��,4.4,��
2016/11/26,02:10,1.083,1.829,1.222,2.054,1.423,0.570,1.038,0.962,�k��,5.1,��
2016/11/26,02:20,1.085,1.827,1.220,2.050,1.422,0.567,1.038,0.961,�k��,3.9,��
2016/11/26,02:30,1.086,1.828,1.221,2.053,1.423,0.567,1.037,0.962,�k��,3.5,��
2016/11/26,02:40,1.084,1.828,1.217,2.050,1.422,0.569,1.037,0.960,�k�k��,2.9,��
2016/11/26,02:50,1.086,1.829,1.219,2.053,1.422,0.568,1.037,0.962,�k�k��,3.5,��
2016/11/26,03:00,1.084,1.826,1.217,2.052,1.421,0.568,1.039,0.959,�k�k��,4.7,��
2016/11/26,03:10,1.085,1.827,1.221,2.053,1.424,0.568,1.036,0.961,�k�k��,4.4,��
2016/11/26,03:20,1.086,1.828,1.219,2.053,1.423,0.567,1.038,0.960,�k�k��,4.8,��
2016/11/26,03:30,1.084,1.829,1.220,2.055,1.421,0.567,1.036,0.961,�k�k��,6.2,��
2016/11/26,03:40,1.085,1.828,1.221,2.055,1.420,0.568,1.037,0.959,�k�k��,5.9,��
2016/11/26,03:50,1.084,1.826,1.223,2.054,1.423,0.567,1.038,0.961,�k�k��,6.7,��
2016/11/26,04:00,1.084,1.829,1.220,2.053,1.420,0.568,1.033,0.961,�k�k��,7.1,��
2016/11/26,04:10,1.084,1.830,1.221,2.055,1.420,0.569,1.037,0.960,�k�k��,4.3,��
2016/11/26,04:20,1.085,1.828,1.219,2.053,1.423,0.568,1.037,0.960,�k�k��,5.2,��
2016/11/26,04:30,1.083,1.826,1.221,2.053,1.418,0.569,1.036,0.960,�k�k��,4.2,��
2016/11/26,04:40,1.084,1.827,1.220,2.052,1.420,0.570,1.036,0.960,�k��,3.8,��
2016/11/26,04:50,1.085,1.825,1.218,2.054,1.423,0.569,1.036,0.959,�k�k��,3.7,��
2016/11/26,05:00,1.084,1.826,1.218,2.055,1.418,0.567,1.036,0.961,�k�k��,2.8,��
2016/11/26,05:10,1.082,1.827,1.217,2.055,1.420,0.569,1.036,0.961,�k�k��,1.9,��
2016/11/26,05:20,1.083,1.826,1.216,2.055,1.422,0.567,1.037,0.961,�k��,1.9,��
2016/11/26,05:30,1.084,1.826,1.219,2.053,1.421,0.567,1.035,0.960,�k��,2.6,��
2016/11/26,05:40,1.085,1.829,1.218,2.055,1.420,0.568,1.035,0.962,�k��,6.2,��
2016/11/26,05:50,1.082,1.826,1.221,2.052,1.423,0.569,1.037,0.961,�k�k��,5.3,��
2016/11/26,06:00,1.084,1.827,1.219,2.055,1.420,0.567,1.036,0.960,�k��,6.0,��
2016/11/26,06:10,1.084,1.827,1.219,2.051,1.421,0.568,1.037,0.960,�k��,5.8,��
2016/11/26,06:20,1.084,1.825,1.219,2.053,1.423,0.568,1.034,0.960,�k��,6.4,��
2016/11/26,06:30,1.082,1.826,1.219,2.054,1.421,0.566,1.036,0.960,�k��,6.6,��
2016/11/26,06:40,1.084,1.823,1.217,2.054,1.423,0.568,1.035,0.960,���k��,6.8,��
2016/11/26,06:50,1.084,1.829,1.219,2.054,1.420,0.567,1.035,0.960,���k��,6.9,��
2016/11/26,07:00,1.082,1.826,1.219,2.054,1.423,0.567,1.038,0.961,���k��,6.5,��
2016/11/26,07:10,1.085,1.828,1.220,2.056,1.420,0.567,1.039,0.961,�k��,6.3,��
2016/11/26,07:20,1.081,1.828,1.218,2.056,1.422,0.567,1.038,0.960,�k��,6.5,��
2016/11/26,07:30,1.082,1.827,1.219,2.057,1.420,0.570,1.037,0.961,�k��,6.4,��
2016/11/26,07:40,1.085,1.825,1.220,2.054,1.421,0.570,1.039,0.960,�k��,6.5,��
2016/11/26,07:50,1.081,1.825,1.220,2.060,1.421,0.568,1.038,0.961,�k��,5.1,��
2016/11/26,08:00,1.086,1.830,1.220,2.057,1.424,0.567,1.038,0.961,�k��,5.2,��
2016/11/26,08:10,1.085,1.828,1.222,2.057,1.421,0.567,1.039,0.962,�k��,4.4,��
2016/11/26,08:20,1.085,1.825,1.222,2.056,1.422,0.569,1.041,0.961,�k�k��,4.9,��
2016/11/26,08:30,1.087,1.826,1.219,2.058,1.421,0.569,1.037,0.962,�k��,4.8,��
2016/11/26,08:40,1.089,1.827,1.219,2.062,1.423,0.569,1.037,0.963,�k�k��,3.7,��
2016/11/26,08:50,1.086,1.831,1.223,2.061,1.420,0.568,1.040,0.962,�k�k��,4.3,��
2016/11/26,09:00,1.089,1.831,1.223,2.058,1.424,0.568,1.040,0.964,�k�k��,4.2,��
2016/11/26,09:10,1.088,1.829,1.223,2.057,1.421,0.570,1.040,0.964,�k�k��,4.7,��
2016/11/26,09:20,1.087,1.834,1.226,2.058,1.423,0.568,1.040,0.962,�k,4.4,��
2016/11/26,09:30,1.087,1.826,1.226,2.060,1.421,0.569,1.040,0.964,�k,3.9,��
2016/11/26,09:40,1.089,1.832,1.227,2.061,1.425,0.570,1.039,0.963,�k,4.7,��
2016/11/26,09:50,1.091,1.833,1.226,2.059,1.423,0.571,1.039,0.964,�k,5.1,��
2016/11/26,10:00,1.088,1.833,1.227,2.064,1.423,0.569,1.038,0.961,�k,4.2,��
2016/11/26,10:10,1.091,1.832,1.224,2.061,1.428,0.570,1.037,0.966,�k�k��,5.7,��
2016/11/26,10:20,1.091,1.832,1.225,2.064,1.426,0.570,1.039,0.963,�k�k��,6.3,��
2016/11/26,10:30,1.093,1.833,1.227,2.063,1.427,0.571,1.037,0.964,�k�k��,6.9,��
2016/11/26,10:40,1.091,1.829,1.225,2.065,1.427,0.571,1.038,0.961,�k�k��,6.1,��
2016/11/26,10:50,1.090,1.831,1.226,2.063,1.425,0.570,1.038,0.964,�k�k��,6.7,��
2016/11/26,11:00,1.092,1.834,1.225,2.062,1.427,0.569,1.039,0.962,�k�k��,5.1,��
2016/11/26,11:10,1.094,1.831,1.228,2.064,1.427,0.570,1.040,0.963,�k�k��,6.1,��
2016/11/26,11:20,1.093,1.833,1.229,2.064,1.427,0.570,1.039,0.964,�k�k��,5.4,��
2016/11/26,11:30,1.094,1.836,1.227,2.066,1.430,0.572,1.040,0.963,�k�k��,4.7,��
2016/11/26,11:40,1.094,1.829,1.228,2.066,1.426,0.571,1.038,0.964,�k�k��,4.5,��
2016/11/26,11:50,1.096,1.833,1.227,2.063,1.429,0.570,1.038,0.963,�k�k��,4.1,��
2016/11/26,12:00,1.096,1.832,1.227,2.066,1.427,0.571,1.040,0.966,�k�k��,3.6,��
2016/11/26,12:10,1.096,1.834,1.230,2.063,1.430,0.569,1.040,0.965,�k�k��,3.2,��
2016/11/26,12:20,1.094,1.838,1.231,2.064,1.427,0.571,1.041,0.966,�k��,2.8,��
2016/11/26,12:30,1.098,1.835,1.230,2.066,1.430,0.570,1.042,0.964,���k��,2.8,��
2016/11/26,12:40,1.098,1.837,1.229,2.066,1.428,0.571,1.040,0.965,���k��,2.0,��
2016/11/26,12:50,1.096,1.833,1.231,2.066,1.425,0.574,1.041,0.964,���쓌,2.0,��
2016/11/26,13:00,1.097,1.827,1.230,2.066,1.429,0.573,1.040,0.965,��,2.3,��
2016/11/26,13:10,1.096,1.834,1.232,2.067,1.430,0.572,1.040,0.961,���쓌,2.5,��
2016/11/26,13:20,1.097,1.835,1.229,2.068,1.432,0.573,1.041,0.962,���쓌,2.6,��
2016/11/26,13:30,1.099,1.837,1.231,2.066,1.431,0.571,1.042,0.961,���쓌,3.1,��
2016/11/26,13:40,1.099,1.838,1.232,2.069,1.430,0.572,1.041,0.963,���쓌,2.9,��
2016/11/26,13:50,1.098,1.838,1.234,2.066,1.432,0.572,1.041,0.961,�쓌,3.0,��
2016/11/26,14:00,1.098,1.839,1.233,2.067,1.428,0.571,1.041,0.962,��쓌,3.1,��
2016/11/26,14:10,1.097,1.838,1.231,2.069,1.431,0.572,1.043,0.961,��쓌,3.7,��
2016/11/26,14:20,1.101,1.835,1.233,2.065,1.430,0.572,1.040,0.962,��쓌,3.7,��
2016/11/26,14:30,1.098,1.837,1.232,2.066,1.433,0.572,1.040,0.964,��쓌,4.4,��
2016/11/26,14:40,1.097,1.837,1.232,2.066,1.431,0.571,1.043,0.965,��쓌,5.2,��
2016/11/26,14:50,1.099,1.839,1.235,2.065,1.432,0.572,1.043,0.963,��쓌,4.8,��
2016/11/26,15:00,1.097,1.841,1.235,2.068,1.433,0.573,1.043,0.966,��쓌,5.0,��
2016/11/26,15:10,1.097,1.840,1.234,2.069,1.435,0.572,1.044,0.963,��쓌,5.2,��
2016/11/26,15:20,1.097,1.842,1.232,2.067,1.429,0.572,1.043,0.965,��쓌,5.7,��
2016/11/26,15:30,1.098,1.839,1.231,2.065,1.434,0.571,1.044,0.966,��쓌,6.2,��
2016/11/26,15:40,1.100,1.842,1.233,2.065,1.432,0.574,1.044,0.965,��,6.1,��
2016/11/26,15:50,1.099,1.840,1.232,2.071,1.435,0.573,1.043,0.964,��,6.5,��
2016/11/26,16:00,1.099,1.839,1.232,2.069,1.434,0.572,1.043,0.964,��,6.8,��
2016/11/26,16:10,1.099,1.842,1.233,2.068,1.437,0.572,1.043,0.965,��,5.7,��
2016/11/26,16:20,1.099,1.841,1.234,2.066,1.439,0.573,1.041,0.964,��,6.5,��
2016/11/26,16:30,1.097,1.842,1.232,2.069,1.436,0.573,1.042,0.962,��,7.0,��
2016/11/26,16:40,1.099,1.841,1.232,2.068,1.438,0.573,1.044,0.962,��,8.1,��
2016/11/26,16:50,1.097,1.843,1.230,2.067,1.436,0.574,1.041,0.964,��,7.1,��
2016/11/26,17:00,1.100,1.839,1.233,2.068,1.436,0.574,1.043,0.963,��,6.9,��
2016/11/26,17:10,1.099,1.841,1.231,2.066,1.435,0.574,1.040,0.964,��쐼,6.6,��
2016/11/26,17:20,1.094,1.841,1.231,2.065,1.439,0.573,1.042,0.964,��,5.9,��
2016/11/26,17:30,1.100,1.838,1.224,2.069,1.436,0.571,1.041,0.964,��,4.7,��
2016/11/26,17:40,1.099,1.841,1.227,2.064,1.436,0.572,1.042,0.964,��,5.5,��
2016/11/26,17:50,1.099,1.841,1.232,2.066,1.434,0.573,1.041,0.964,��쐼,6.3,��
2016/11/26,18:00,1.097,1.842,1.230,2.064,1.436,0.573,1.042,0.964,��쐼,6.0,��
2016/11/26,18:10,1.098,1.839,1.231,2.066,1.439,0.572,1.041,0.963,��쐼,6.3,��
2016/11/26,18:20,1.097,1.843,1.232,2.065,1.435,0.572,1.043,0.964,��쐼,6.6,��
2016/11/26,18:30,1.097,1.840,1.231,2.066,1.432,0.571,1.040,0.963,��쐼,6.5,��
2016/11/26,18:40,1.097,1.842,1.231,2.066,1.435,0.572,1.043,0.963,��쐼,6.2,��
2016/11/26,18:50,1.097,1.840,1.233,2.069,1.437,0.571,1.040,0.964,��쐼,6.5,��
2016/11/26,19:00,1.094,1.838,1.232,2.063,1.434,0.571,1.043,0.962,��쐼,7.3,��
2016/11/26,19:10,1.096,1.844,1.232,2.067,1.433,0.572,1.040,0.962,�쐼,7.1,��
2016/11/26,19:20,1.097,1.844,1.234,2.064,1.439,0.573,1.043,0.965,�쐼,5.9,��
2016/11/26,19:30,1.098,1.840,1.233,2.067,1.435,0.573,1.042,0.963,�쐼,6.1,��
2016/11/26,19:40,1.098,1.840,1.231,2.064,1.438,0.573,1.040,0.965,�쐼,5.6,��
2016/11/26,19:50,1.097,1.840,1.232,2.066,1.436,0.573,1.043,0.963,��쐼,5.7,��
2016/11/26,20:00,1.098,1.839,1.230,2.068,1.435,0.572,1.042,0.965,��쐼,5.7,��
2016/11/26,20:10,1.097,1.840,1.232,2.068,1.434,0.573,1.041,0.964,��,6.6,��
2016/11/26,20:20,1.099,1.843,1.231,2.068,1.433,0.574,1.044,0.962,��,6.8,��
2016/11/26,20:30,1.099,1.841,1.232,2.068,1.432,0.574,1.042,0.963,��,7.7,��
2016/11/26,20:40,1.097,1.843,1.233,2.069,1.433,0.571,1.042,0.963,��쐼,6.5,��
2016/11/26,20:50,1.098,1.841,1.235,2.067,1.435,0.572,1.043,0.964,��쐼,6.7,��
2016/11/26,21:00,1.099,1.843,1.235,2.068,1.435,0.570,1.044,0.965,��쐼,6.7,��
2016/11/26,21:10,1.098,1.844,1.234,2.066,1.437,0.572,1.044,0.965,��쐼,7.1,��
2016/11/26,21:20,1.098,1.840,1.233,2.067,1.432,0.572,1.043,0.964,��쐼,6.8,��
2016/11/26,21:30,1.098,1.842,1.234,2.066,1.437,0.572,1.041,0.965,��쐼,6.6,��
2016/11/26,21:40,1.099,1.839,1.232,2.069,1.437,0.573,1.043,0.965,��쐼,5.9,��
2016/11/26,21:50,1.098,1.843,1.231,2.067,1.436,0.573,1.044,0.965,��쐼,5.8,��
2016/11/26,22:00,1.100,1.842,1.232,2.069,1.436,0.572,1.044,0.963,��쐼,5.4,��
2016/11/26,22:10,1.100,1.842,1.232,2.068,1.437,0.573,1.043,0.964,��쐼,4.9,��
2016/11/26,22:20,1.101,1.842,1.233,2.067,1.435,0.572,1.043,0.964,��쐼,4.5,��
2016/11/26,22:30,1.099,1.841,1.234,2.067,1.438,0.575,1.043,0.963,��쐼,4.3,��
2016/11/26,22:40,1.099,1.841,1.233,2.065,1.436,0.574,1.042,0.966,��쐼,4.1,��
2016/11/26,22:50,1.101,1.839,1.232,2.067,1.435,0.573,1.043,0.964,��쐼,4.1,��
2016/11/26,23:00,1.100,1.841,1.233,2.068,1.435,0.571,1.045,0.967,��쐼,3.8,��
2016/11/26,23:10,1.100,1.841,1.233,2.067,1.434,0.574,1.044,0.964,�쐼,3.6,��
2016/11/26,23:20,1.099,1.843,1.234,2.065,1.437,0.573,1.043,0.965,�쐼,2.8,��
2016/11/26,23:30,1.100,1.843,1.232,2.066,1.436,0.574,1.045,0.963,�쐼,2.5,��
2016/11/26,23:40,1.100,1.844,1.234,2.067,1.438,0.573,1.043,0.965,�쐼,2.6,��
2016/11/26,23:50,1.101,1.843,1.235,2.067,1.438,0.573,1.041,0.965,�쐼,2.5,��
